New Roads False River Regiona, LA

3:59 AM CDT on September 22, 2019 (GMT -0500)
False River

Weather History for KHZR - May, 2019

Change the Weather History Date:

Wednesday, May 22, 2019

  Actual Average (WUND) Record (WUND)
Temperature  
Mean Temperature 82 °F -  
Max Temperature 89 °F - - (-1)
Min Temperature 75 °F - - (-1)
Cooling Degree Days 17    
Growing Degree Days 32 (Base 50)    
Moisture  
Dew Point 72 °F    
Average Humidity 76    
Maximum Humidity 94    
Minimum Humidity 52    
Precipitation  
Precipitation 0.00 in - - ()
Sea Level Pressure  
Sea Level Pressure 29.95 in    
Wind  
Wind Speed 8 mph ()    
Max Wind Speed 15 mph    
Max Gust Speed 22 mph    
Visibility 10.0 miles    
Events      
Averages and records for this station are not official NWS values.
T = Trace of Precipitation, MM = Missing Value Source: Averaged Metar Reports

Daily Weather History Graph

Daily Weather History Graph

Search for Another Location

Airport or City:

Astronomy

May. 22, 2019 Rise Set
Actual Time 6:07 AM CDT 7:58 PM CDT
Civil Twilight 5:40 AM CDT 8:25 PM CDT
Nautical Twilight 5:08 AM CDT 8:57 PM CDT
Astronomical Twilight 4:33 AM CDT 9:31 PM CDT
Moon 11:40 PM CDT 9:18 AM CDT
Length of Visible Light 14h 44m
Length of Day
13h 50m
Waning Gibbous, 85% of the Moon is Illuminated
May 22
Waning Gibbous
May 26
Last Quarter
Jun 3
New
Jun 10
First Quarter
Jun 17
Full

Hourly Weather History & Observations

Time (CDT) Temp. Heat Index Dew Point Humidity Pressure Visibility Wind Dir Wind Speed Gust Speed Precip Events Conditions
12:16 AM 77.0 °F - 73.4 °F 89% 29.88 in 10.0 mi SSE 5.8 mph - N/A   Mostly Cloudy
12:35 AM 77.0 °F - 73.4 °F 89% 29.88 in 10.0 mi SSE 5.8 mph - N/A   Scattered Clouds
1:15 AM 75.2 °F - 73.4 °F 94% 29.87 in 10.0 mi SSE 6.9 mph - N/A   Mostly Cloudy
1:55 AM 75.2 °F - 73.4 °F 94% 29.86 in 10.0 mi SE 6.9 mph - N/A   Scattered Clouds
2:55 AM 75.2 °F - 73.4 °F 94% 29.87 in 10.0 mi SE 5.8 mph - N/A   Clear
3:15 AM 75.2 °F - 73.4 °F 94% 29.87 in 10.0 mi SE 5.8 mph - N/A   Scattered Clouds
3:35 AM 75.2 °F - 73.4 °F 94% 29.87 in 10.0 mi SE 5.8 mph - N/A   Scattered Clouds
3:56 AM 75.2 °F - 73.4 °F 94% 29.88 in 10.0 mi SE 5.8 mph - N/A   Scattered Clouds
4:15 AM 75.2 °F - 73.4 °F 94% 29.89 in 10.0 mi SE 4.6 mph - N/A   Scattered Clouds
4:35 AM 75.2 °F - 73.4 °F 94% 29.89 in 10.0 mi ESE 4.6 mph - N/A   Scattered Clouds
4:54 AM 75.2 °F - 73.4 °F 94% 29.90 in 10.0 mi SE 4.6 mph - N/A   Mostly Cloudy
6:55 AM 75.2 °F - 73.4 °F 94% 29.92 in - SE 10.4 mph - N/A   Unknown
7:15 AM 77.0 °F - 75.2 °F 94% 29.92 in 10.0 mi SE 11.5 mph - N/A   Clear
7:36 AM 77.0 °F - 75.2 °F 94% 29.93 in 10.0 mi SE 10.4 mph 16.1 mph N/A   Scattered Clouds
7:55 AM 78.8 °F - 75.2 °F 89% 29.93 in 10.0 mi SSE 10.4 mph 17.3 mph N/A   Scattered Clouds
8:15 AM 78.8 °F - 75.2 °F 89% 29.93 in - SSE 11.5 mph - N/A   Unknown
8:37 AM 80.6 °F 86.2 °F 75.2 °F 84% 29.94 in - SSE 12.7 mph 20.7 mph N/A   Mostly Cloudy
8:54 AM 80.6 °F 85.4 °F 73.4 °F 79% 29.94 in - SSE 15.0 mph 21.9 mph N/A   Overcast
9:35 AM 82.4 °F 88.2 °F 73.4 °F 74% 29.96 in - SSE 12.7 mph 20.7 mph N/A   Scattered Clouds
9:55 AM 82.4 °F 88.2 °F 73.4 °F 74% 29.96 in - SSE 10.4 mph 19.6 mph N/A   Mostly Cloudy
10:14 AM 84.2 °F 90.9 °F 73.4 °F 70% 29.97 in - SSE 12.7 mph 19.6 mph N/A   Mostly Cloudy
10:36 AM 82.4 °F 88.2 °F 73.4 °F 74% 29.97 in - SSE 11.5 mph 19.6 mph N/A   Scattered Clouds
10:56 AM 84.2 °F 90.9 °F 73.4 °F 70% 29.97 in - SSE 11.5 mph 18.4 mph N/A   Clear
11:15 AM 84.2 °F 89.6 °F 71.6 °F 66% 29.98 in - SSE 11.5 mph 16.1 mph N/A   Scattered Clouds
11:56 AM 87.8 °F 93.8 °F 71.6 °F 58% 29.98 in - SSE 13.8 mph 20.7 mph N/A   Scattered Clouds
12:35 PM 87.8 °F 93.8 °F 71.6 °F 58% 29.98 in - SE 8.1 mph - N/A   Scattered Clouds
12:56 PM - - - N/A% 29.98 in - South 12.7 mph 17.3 mph N/A   Mostly Cloudy
1:15 PM 89.6 °F 96.2 °F 71.6 °F 55% 29.98 in - SSE 9.2 mph - N/A   Scattered Clouds
1:56 PM 89.6 °F 94.7 °F 69.8 °F 52% 29.98 in 10.0 mi South 12.7 mph 20.7 mph N/A   Scattered Clouds
2:16 PM 89.6 °F 94.7 °F 69.8 °F 52% 29.97 in - SSE 13.8 mph - N/A   Clear
3:15 PM 89.6 °F 94.7 °F 69.8 °F 52% 29.97 in - SSE 15.0 mph - N/A   Clear
3:56 PM 89.6 °F 94.7 °F 69.8 °F 52% 29.97 in - South 9.2 mph 17.3 mph N/A   Scattered Clouds
4:15 PM 89.6 °F 94.7 °F 69.8 °F 52% 29.97 in 10.0 mi SSE 11.5 mph 19.6 mph N/A   Scattered Clouds
4:35 PM 89.6 °F 94.7 °F 69.8 °F 52% 29.97 in 10.0 mi South 12.7 mph 18.4 mph N/A   Clear
5:55 PM 87.8 °F 92.6 °F 69.8 °F 55% 29.97 in - SSE 10.4 mph 16.1 mph N/A   Clear
7:15 PM 84.2 °F 88.4 °F 69.8 °F 62% 29.98 in 10.0 mi SSE 6.9 mph - N/A   Clear
7:56 PM 82.4 °F 86.3 °F 69.8 °F 66% 29.98 in - South 5.8 mph - N/A   Clear
8:37 PM 80.6 °F 84.6 °F 71.6 °F 74% 30.00 in - SSE 5.8 mph - N/A   Mostly Cloudy
8:56 PM 80.6 °F 84.6 °F 71.6 °F 74% 30.00 in 10.0 mi SSE 5.8 mph - N/A   Scattered Clouds
9:15 PM 80.6 °F 84.6 °F 71.6 °F 74% 30.00 in 10.0 mi SSE 6.9 mph - N/A   Clear
9:35 PM 80.6 °F 84.6 °F 71.6 °F 74% 30.01 in 10.0 mi SSE 6.9 mph - N/A   Clear
9:55 PM 78.8 °F - 71.6 °F 78% 30.02 in 10.0 mi SSE 6.9 mph - N/A   Clear
11:14 PM 78.8 °F - 73.4 °F 83% 30.05 in 10.0 mi SE 8.1 mph - N/A   Clear
11:56 PM 77.0 °F - 73.4 °F 89% 30.04 in 10.0 mi SE 9.2 mph - N/A   Clear